CFG2AC EDDF-LPMA

Flight info

Callsign CFG2AC
Flight time 3h 45m
Altitude 31000
Route SOBRA2L/18 SOBRA Y180 DIK UN857 TOLVU DCT RAPOR DCT GIMER/N0452F330 DCT ESTOC UT300 PON UN872 GODIX/N0449F310 UN872 DIDAK/N0450F330 UN872 ERIGA UN741 AZFIC DCT LOTEE DCT AGADO DCT LIDRO
Aircraft A321/M-SDE3GHIJ1LORVWXYZ/LB1D1

Departure

Time 2026-05-06 14:06
Airport Frankfurt Main Airport (EDDF)

Arrival

Time 2026-05-06 17:51
Airport Cristiano Ronaldo International Airport (LPMA)
Time Latitude Longitude Altitude Speed Heading
2026-05-06 13:14 50.04722 8.58121 367 ft 0 kts 159°
2026-05-06 13:53 50.04733 8.58115 365 ft 3 kts 159°
2026-05-06 13:54 50.04752 8.58104 362 ft 3 kts 159°
2026-05-06 13:54 50.04770 8.58093 359 ft 3 kts 162°
2026-05-06 13:54 50.04785 8.58089 364 ft 3 kts 220°
2026-05-06 13:54 50.04794 8.58108 362 ft 1 kts 249°
2026-05-06 13:55 50.04798 8.58126 364 ft 2 kts 249°
2026-05-06 13:55 50.04800 8.58133 365 ft 0 kts 249°
2026-05-06 13:57 50.04798 8.58125 364 ft 3 kts 249°
2026-05-06 13:57 50.04781 8.58052 364 ft 11 kts 250°
2026-05-06 13:58 50.04740 8.57936 364 ft 12 kts 223°
2026-05-06 13:58 50.04704 8.57877 357 ft 11 kts 238°
2026-05-06 13:58 50.04671 8.57748 362 ft 16 kts 250°
2026-05-06 13:58 50.04626 8.57559 359 ft 22 kts 249°
2026-05-06 13:59 50.04570 8.57324 363 ft 23 kts 249°
2026-05-06 13:59 50.04500 8.57031 361 ft 21 kts 250°
2026-05-06 13:59 50.04451 8.56827 365 ft 21 kts 249°
2026-05-06 13:59 50.04393 8.56583 359 ft 27 kts 249°
2026-05-06 14:00 50.04352 8.56411 358 ft 24 kts 250°
2026-05-06 14:00 50.04297 8.56182 360 ft 22 kts 249°
2026-05-06 14:00 50.04244 8.55962 358 ft 21 kts 250°
2026-05-06 14:00 50.04194 8.55749 358 ft 21 kts 250°
2026-05-06 14:01 50.04144 8.55543 356 ft 20 kts 249°
2026-05-06 14:01 50.04098 8.55350 354 ft 19 kts 250°
2026-05-06 14:01 50.04050 8.55147 360 ft 22 kts 249°
2026-05-06 14:01 50.03992 8.54906 357 ft 24 kts 249°
2026-05-06 14:02 50.03933 8.54659 355 ft 25 kts 250°
2026-05-06 14:02 50.03878 8.54430 355 ft 21 kts 250°
2026-05-06 14:02 50.03811 8.54257 350 ft 18 kts 242°
2026-05-06 14:02 50.03763 8.54069 353 ft 21 kts 249°
2026-05-06 14:03 50.03711 8.53852 348 ft 21 kts 250°
2026-05-06 14:03 50.03660 8.53641 348 ft 21 kts 249°
2026-05-06 14:03 50.03609 8.53438 337 ft 20 kts 249°
2026-05-06 14:03 50.03562 8.53241 337 ft 19 kts 250°
2026-05-06 14:04 50.03515 8.53046 336 ft 20 kts 250°
2026-05-06 14:04 50.03463 8.52844 336 ft 21 kts 246°
2026-05-06 14:04 50.03415 8.52654 333 ft 12 kts 249°
2026-05-06 14:04 50.03355 8.52594 335 ft 11 kts 184°
2026-05-06 14:05 50.03207 8.52595 335 ft 46 kts 180°
2026-05-06 14:05 50.02670 8.52600 332 ft 106 kts 180°
2026-05-06 14:05 50.01772 8.52609 333 ft 151 kts 179°
2026-05-06 14:05 50.00606 8.52627 434 ft 177 kts 182°
2026-05-06 14:06 49.99392 8.52677 1105 ft 174 kts 180°
2026-05-06 14:06 49.98172 8.52755 1701 ft 176 kts 181°
2026-05-06 14:06 49.96899 8.52842 1872 ft 192 kts 181°
2026-05-06 14:06 49.95500 8.52933 2024 ft 210 kts 181°
2026-05-06 14:07 49.93983 8.53031 2278 ft 222 kts 181°
2026-05-06 14:07 49.92436 8.53139 2783 ft 223 kts 181°
2026-05-06 14:07 49.90883 8.53250 3321 ft 224 kts 180°
2026-05-06 14:07 49.89319 8.53360 3855 ft 226 kts 179°
2026-05-06 14:08 49.87763 8.53438 4351 ft 226 kts 185°
2026-05-06 14:08 49.86222 8.52890 4671 ft 236 kts 201°
2026-05-06 14:08 49.84608 8.51983 4901 ft 255 kts 202°
2026-05-06 14:08 49.82921 8.51020 5455 ft 260 kts 201°
2026-05-06 14:09 49.81212 8.50047 6134 ft 262 kts 201°
2026-05-06 14:09 49.79490 8.49070 6753 ft 265 kts 201°
2026-05-06 14:09 49.77788 8.47961 7380 ft 266 kts 213°
2026-05-06 14:09 49.76478 8.45963 7958 ft 268 kts 239°
2026-05-06 14:10 49.75878 8.43236 8523 ft 272 kts 265°
2026-05-06 14:10 49.76099 8.40313 9107 ft 278 kts 282°
2026-05-06 14:10 49.76575 8.37401 9715 ft 281 kts 282°
2026-05-06 14:10 49.77060 8.34428 10056 ft 294 kts 282°
2026-05-06 14:11 49.77564 8.31305 10207 ft 312 kts 282°
2026-05-06 14:11 49.78102 8.27956 10321 ft 330 kts 282°
2026-05-06 14:11 49.78672 8.24411 10445 ft 347 kts 282°
2026-05-06 14:11 49.79268 8.20714 10702 ft 359 kts 282°
2026-05-06 14:12 49.79875 8.16953 11226 ft 362 kts 282°
2026-05-06 14:12 49.80484 8.13156 11772 ft 365 kts 282°
2026-05-06 14:12 49.81094 8.09321 12300 ft 369 kts 282°
2026-05-06 14:12 49.81707 8.05450 12854 ft 371 kts 282°
2026-05-06 14:13 49.82323 8.01551 13358 ft 375 kts 282°
2026-05-06 14:13 49.82932 7.97673 13847 ft 377 kts 282°
2026-05-06 14:13 49.83555 7.93710 14301 ft 380 kts 282°
2026-05-06 14:13 49.84182 7.89721 14752 ft 383 kts 282°
2026-05-06 14:14 49.84812 7.85704 15191 ft 386 kts 282°
2026-05-06 14:14 49.85446 7.81649 15649 ft 388 kts 281°
2026-05-06 14:14 49.86081 7.77571 16053 ft 392 kts 282°
2026-05-06 14:14 49.86727 7.73448 16452 ft 395 kts 282°
2026-05-06 14:15 49.87381 7.69297 16867 ft 398 kts 282°
2026-05-06 14:15 49.88036 7.65116 17263 ft 401 kts 281°
2026-05-06 14:15 49.88692 7.60897 17697 ft 404 kts 281°
2026-05-06 14:15 49.89349 7.56647 18092 ft 407 kts 282°
2026-05-06 14:16 49.90007 7.52368 18455 ft 409 kts 281°
2026-05-06 14:16 49.90666 7.48071 18820 ft 411 kts 281°
2026-05-06 14:16 49.91317 7.43809 19190 ft 412 kts 281°
2026-05-06 14:16 49.91977 7.39477 19572 ft 414 kts 281°
2026-05-06 14:17 49.92638 7.35118 19944 ft 416 kts 282°
2026-05-06 14:17 49.93298 7.30748 20322 ft 417 kts 281°
2026-05-06 14:17 49.93961 7.26360 20736 ft 418 kts 282°
2026-05-06 14:17 49.94626 7.21966 21154 ft 418 kts 282°
2026-05-06 14:18 49.95291 7.17562 21538 ft 420 kts 282°
2026-05-06 14:18 49.95954 7.13151 21922 ft 421 kts 282°
2026-05-06 14:18 49.96610 7.08770 22277 ft 423 kts 282°
2026-05-06 14:18 49.97271 7.04315 22633 ft 424 kts 282°
2026-05-06 14:19 49.97932 6.99837 22978 ft 426 kts 281°
2026-05-06 14:19 49.98598 6.95340 23305 ft 428 kts 282°
2026-05-06 14:19 49.99128 6.90803 23682 ft 426 kts 274°
2026-05-06 14:19 49.99213 6.86230 24042 ft 424 kts 266°
2026-05-06 14:20 49.99073 6.81635 24270 ft 428 kts 266°
2026-05-06 14:20 49.98932 6.76997 24513 ft 430 kts 266°
2026-05-06 14:20 49.98790 6.72339 24778 ft 432 kts 266°
2026-05-06 14:20 49.98646 6.67671 25035 ft 434 kts 266°
2026-05-06 14:21 49.98503 6.63036 25283 ft 436 kts 266°
2026-05-06 14:21 49.98242 6.58338 25525 ft 437 kts 259°
2026-05-06 14:21 49.97538 6.53760 25765 ft 437 kts 251°
2026-05-06 14:21 49.96412 6.49374 26012 ft 438 kts 245°
2026-05-06 14:22 49.95189 6.45032 26263 ft 440 kts 245°
2026-05-06 14:22 49.93960 6.40671 26532 ft 441 kts 245°
2026-05-06 14:22 49.92730 6.36307 26843 ft 442 kts 245°
2026-05-06 14:22 49.91497 6.31935 27180 ft 442 kts 245°
2026-05-06 14:23 49.90282 6.27624 27518 ft 442 kts 245°
2026-05-06 14:23 49.89025 6.23271 27850 ft 441 kts 245°
2026-05-06 14:23 49.87774 6.18939 28197 ft 441 kts 245°
2026-05-06 14:23 49.86520 6.14604 28537 ft 440 kts 242°
2026-05-06 14:24 49.84983 6.10510 28878 ft 439 kts 234°
2026-05-06 14:24 49.83228 6.06639 29180 ft 439 kts 234°
2026-05-06 14:24 49.81469 6.02793 29501 ft 438 kts 234°
2026-05-06 14:24 49.79705 5.98956 29877 ft 436 kts 233°
2026-05-06 14:25 49.77946 5.95146 30212 ft 434 kts 233°
2026-05-06 14:25 49.76210 5.91398 30491 ft 434 kts 233°
2026-05-06 14:25 49.74557 5.87499 30769 ft 434 kts 240°
2026-05-06 14:25 49.73294 5.83242 30940 ft 438 kts 249°
2026-05-06 14:26 49.72281 5.78794 31131 ft 439 kts 249°
2026-05-06 14:26 49.71260 5.74355 31363 ft 439 kts 249°
2026-05-06 14:26 49.70230 5.69913 31611 ft 439 kts 249°
2026-05-06 14:26 49.69196 5.65478 31870 ft 439 kts 248°
2026-05-06 14:27 49.68156 5.61051 32121 ft 438 kts 248°
2026-05-06 14:27 49.67116 5.56628 32386 ft 438 kts 248°
2026-05-06 14:27 49.66077 5.52210 32631 ft 438 kts 248°
2026-05-06 14:27 49.65052 5.47849 32813 ft 438 kts 248°
2026-05-06 14:28 49.62963 5.39024 32865 ft 439 kts 248°
2026-05-06 14:28 49.60937 5.30127 32854 ft 440 kts 250°
2026-05-06 14:29 49.59054 5.21148 32860 ft 440 kts 251°
2026-05-06 14:29 49.57385 5.12081 32859 ft 440 kts 254°
2026-05-06 14:30 49.55867 5.03003 32860 ft 440 kts 254°
2026-05-06 14:30 49.54298 4.93885 32870 ft 440 kts 253°
2026-05-06 14:31 49.52662 4.84788 32853 ft 441 kts 253°
2026-05-06 14:31 49.51004 4.75685 32859 ft 443 kts 253°
2026-05-06 14:32 49.49346 4.66551 32865 ft 444 kts 253°
2026-05-06 14:32 49.47690 4.57408 32870 ft 444 kts 253°
2026-05-06 14:33 49.46026 4.48325 32876 ft 444 kts 253°
2026-05-06 14:33 49.44341 4.39193 32873 ft 444 kts 253°
2026-05-06 14:34 49.42653 4.30052 32879 ft 445 kts 253°
2026-05-06 14:34 49.40958 4.20878 32878 ft 445 kts 252°
2026-05-06 14:35 49.39272 4.11827 32879 ft 445 kts 252°
2026-05-06 14:35 49.37562 4.02686 32888 ft 445 kts 252°
2026-05-06 14:36 49.35892 3.93538 32884 ft 446 kts 255°
2026-05-06 14:36 49.34548 3.84246 32894 ft 446 kts 257°
2026-05-06 14:37 49.33322 3.74915 32897 ft 446 kts 257°
2026-05-06 14:37 49.32029 3.65605 32898 ft 446 kts 256°
2026-05-06 14:38 49.30669 3.56328 32900 ft 446 kts 256°
2026-05-06 14:38 49.29304 3.47113 32897 ft 447 kts 257°
2026-05-06 14:39 49.27936 3.37824 32894 ft 447 kts 256°
2026-05-06 14:39 49.26564 3.28532 32893 ft 447 kts 256°
2026-05-06 14:40 49.25184 3.19244 32909 ft 447 kts 256°
2026-05-06 14:40 49.23808 3.10040 32918 ft 447 kts 255°
2026-05-06 14:41 49.22408 3.00769 32903 ft 447 kts 256°
2026-05-06 14:41 49.21005 2.91503 32898 ft 448 kts 256°
2026-05-06 14:42 49.19589 2.82220 32904 ft 448 kts 256°
2026-05-06 14:42 49.18176 2.73009 32915 ft 448 kts 257°
2026-05-06 14:43 49.16747 2.63727 32916 ft 448 kts 256°
2026-05-06 14:43 49.15313 2.54465 32922 ft 449 kts 256°
2026-05-06 14:44 49.13860 2.45202 32924 ft 449 kts 256°
2026-05-06 14:45 49.12197 2.31150 32946 ft 449 kts 261°
2026-05-06 14:45 49.11334 2.21788 32949 ft 449 kts 261°
2026-05-06 14:46 49.10445 2.12365 32961 ft 448 kts 262°
2026-05-06 14:46 49.09283 2.03043 32959 ft 447 kts 252°
2026-05-06 14:47 49.06839 1.94326 32961 ft 447 kts 245°
2026-05-06 14:47 49.04243 1.85713 32922 ft 448 kts 245°
2026-05-06 14:48 49.01654 1.77148 32918 ft 448 kts 245°
2026-05-06 14:48 48.99041 1.68517 32932 ft 449 kts 246°
2026-05-06 14:49 48.96420 1.59909 32937 ft 449 kts 246°
2026-05-06 14:49 48.93788 1.51298 32944 ft 449 kts 246°
2026-05-06 14:50 48.91173 1.42748 32947 ft 449 kts 246°
2026-05-06 14:50 48.88533 1.34163 32951 ft 449 kts 246°
2026-05-06 14:51 48.85884 1.25575 32944 ft 449 kts 245°
2026-05-06 14:51 48.83228 1.16987 32942 ft 449 kts 245°
2026-05-06 14:52 48.80568 1.08398 32946 ft 450 kts 246°
2026-05-06 14:52 48.77907 0.99876 32950 ft 450 kts 245°
2026-05-06 14:53 48.75223 0.91312 32951 ft 450 kts 246°
2026-05-06 14:53 48.72124 0.83073 32956 ft 450 kts 239°
2026-05-06 14:54 48.68846 0.74991 32958 ft 450 kts 240°
2026-05-06 14:54 48.65584 0.66979 32963 ft 450 kts 239°
2026-05-06 14:55 48.62299 0.58917 32953 ft 451 kts 239°
2026-05-06 14:55 48.59015 0.50859 32962 ft 451 kts 239°
2026-05-06 14:56 48.55709 0.42806 32951 ft 451 kts 239°
2026-05-06 14:56 48.52409 0.34757 32964 ft 451 kts 239°
2026-05-06 14:57 48.49128 0.26785 32975 ft 450 kts 240°
2026-05-06 14:57 48.45813 0.18776 32976 ft 450 kts 238°
2026-05-06 14:58 48.42494 0.10783 32983 ft 450 kts 239°
2026-05-06 14:58 48.39175 0.02791 32982 ft 450 kts 239°
2026-05-06 14:59 48.35858 -0.05128 32985 ft 450 kts 237°
2026-05-06 14:59 48.32240 -0.12787 32993 ft 450 kts 233°
2026-05-06 15:00 48.28421 -0.20225 32994 ft 449 kts 233°
2026-05-06 15:00 48.24618 -0.27661 32995 ft 449 kts 234°
2026-05-06 15:01 48.20853 -0.35049 32992 ft 449 kts 233°
2026-05-06 15:01 48.17058 -0.42467 32986 ft 449 kts 233°
2026-05-06 15:02 48.13253 -0.49885 32983 ft 449 kts 233°
2026-05-06 15:02 48.09446 -0.57299 32984 ft 449 kts 233°
2026-05-06 15:03 48.05631 -0.64696 32983 ft 449 kts 233°
2026-05-06 15:03 48.01834 -0.72038 32985 ft 449 kts 233°
2026-05-06 15:04 47.98011 -0.79423 32981 ft 449 kts 233°
2026-05-06 15:04 47.94181 -0.86795 32974 ft 449 kts 233°
2026-05-06 15:05 47.90346 -0.94144 32989 ft 449 kts 233°
2026-05-06 15:05 47.86518 -1.01480 32984 ft 448 kts 233°
2026-05-06 15:06 47.82712 -1.08734 32991 ft 448 kts 233°
2026-05-06 15:06 47.78874 -1.16033 32983 ft 448 kts 233°
2026-05-06 15:07 47.75036 -1.23327 32978 ft 448 kts 233°
2026-05-06 15:07 47.71192 -1.30611 32979 ft 448 kts 233°
2026-05-06 15:08 47.67346 -1.37876 32982 ft 447 kts 233°
2026-05-06 15:08 47.63526 -1.45068 32984 ft 447 kts 233°
2026-05-06 15:09 47.59671 -1.52295 32977 ft 447 kts 232°
2026-05-06 15:09 47.55604 -1.59262 32972 ft 447 kts 229°
2026-05-06 15:10 47.51381 -1.66020 32973 ft 448 kts 228°
2026-05-06 15:10 47.47191 -1.72745 32972 ft 447 kts 229°
2026-05-06 15:11 47.43019 -1.79562 32972 ft 447 kts 229°
2026-05-06 15:11 47.38872 -1.86384 32973 ft 446 kts 229°
2026-05-06 15:12 47.34528 -1.92927 32981 ft 448 kts 219°
2026-05-06 15:12 47.29322 -1.97861 32979 ft 449 kts 212°
2026-05-06 15:13 47.23979 -2.02629 32976 ft 449 kts 212°
2026-05-06 15:13 47.18636 -2.07408 32970 ft 449 kts 213°
2026-05-06 15:14 47.13293 -2.12170 32969 ft 449 kts 213°
2026-05-06 15:14 47.07986 -2.16890 32973 ft 449 kts 213°
2026-05-06 15:15 47.02637 -2.21641 32975 ft 449 kts 212°
2026-05-06 15:15 46.97285 -2.26379 32978 ft 449 kts 212°
2026-05-06 15:16 46.91925 -2.31087 32986 ft 449 kts 212°
2026-05-06 15:16 46.86904 -2.36344 32985 ft 446 kts 226°
2026-05-06 15:17 46.83177 -2.43490 32981 ft 442 kts 242°
2026-05-06 15:17 46.80129 -2.51278 32974 ft 443 kts 242°
2026-05-06 15:18 46.77042 -2.59057 32973 ft 443 kts 241°
2026-05-06 15:18 46.73966 -2.66783 32978 ft 444 kts 241°
2026-05-06 15:19 46.70868 -2.74561 32984 ft 444 kts 242°
2026-05-06 15:19 46.67765 -2.82334 32992 ft 444 kts 241°
2026-05-06 15:20 46.64663 -2.90096 32979 ft 444 kts 242°
2026-05-06 15:20 46.61570 -2.97820 32980 ft 445 kts 242°
2026-05-06 15:21 46.58444 -3.05593 32983 ft 445 kts 241°
2026-05-06 15:21 46.54693 -3.12760 32986 ft 448 kts 227°
2026-05-06 15:22 46.50350 -3.19268 32990 ft 449 kts 228°
2026-05-06 15:22 46.46056 -3.25756 32989 ft 449 kts 228°
2026-05-06 15:23 46.41730 -3.32270 32990 ft 449 kts 228°
2026-05-06 15:23 46.37390 -3.38775 33001 ft 449 kts 227°
2026-05-06 15:24 46.33040 -3.45266 33002 ft 449 kts 227°
2026-05-06 15:24 46.28684 -3.51743 33009 ft 449 kts 227°
2026-05-06 15:25 46.24358 -3.58175 33015 ft 449 kts 228°
2026-05-06 15:25 46.20013 -3.64636 33001 ft 447 kts 227°
2026-05-06 15:26 46.15673 -3.71060 33016 ft 447 kts 227°
2026-05-06 15:26 46.11325 -3.77478 33013 ft 447 kts 227°
2026-05-06 15:27 46.06998 -3.83842 33008 ft 448 kts 227°
2026-05-06 15:27 46.02637 -3.90243 33009 ft 448 kts 227°
2026-05-06 15:28 45.98276 -3.96639 33019 ft 448 kts 227°
2026-05-06 15:28 45.93923 -4.03011 33019 ft 446 kts 227°
2026-05-06 15:29 45.89597 -4.09318 33017 ft 446 kts 227°
2026-05-06 15:29 45.85237 -4.15643 33019 ft 445 kts 227°
2026-05-06 15:30 45.80879 -4.21960 33022 ft 445 kts 227°
2026-05-06 15:30 45.76524 -4.28275 33021 ft 445 kts 227°
2026-05-06 15:31 45.72166 -4.34573 33028 ft 445 kts 227°
2026-05-06 15:31 45.67830 -4.40819 33022 ft 445 kts 227°
2026-05-06 15:32 45.61272 -4.50234 33019 ft 445 kts 227°
2026-05-06 15:32 45.56897 -4.56504 33026 ft 446 kts 227°
2026-05-06 15:33 45.52525 -4.62768 33023 ft 446 kts 227°
2026-05-06 15:33 45.48174 -4.68981 33018 ft 445 kts 226°
2026-05-06 15:34 45.43796 -4.75205 33038 ft 444 kts 226°
2026-05-06 15:34 45.39422 -4.81403 33044 ft 443 kts 226°
2026-05-06 15:35 45.35061 -4.87582 33044 ft 443 kts 226°
2026-05-06 15:35 45.30725 -4.93710 33041 ft 442 kts 226°
2026-05-06 15:36 45.26359 -4.99864 33033 ft 442 kts 226°
2026-05-06 15:36 45.21991 -5.05999 33041 ft 441 kts 226°
2026-05-06 15:37 45.17631 -5.12114 33047 ft 440 kts 226°
2026-05-06 15:37 45.13283 -5.18199 33047 ft 439 kts 226°
2026-05-06 15:38 45.08962 -5.24233 33045 ft 439 kts 226°
2026-05-06 15:38 45.04608 -5.30289 33037 ft 439 kts 226°
2026-05-06 15:39 45.00259 -5.36345 33030 ft 439 kts 226°
2026-05-06 15:39 44.95942 -5.42350 33038 ft 438 kts 226°
2026-05-06 15:40 44.91593 -5.48370 33038 ft 438 kts 225°
2026-05-06 15:40 44.87251 -5.54369 33037 ft 437 kts 225°
2026-05-06 15:41 44.82902 -5.60359 33029 ft 437 kts 225°
2026-05-06 15:41 44.78576 -5.66292 33032 ft 437 kts 225°
2026-05-06 15:42 44.74223 -5.72263 33033 ft 437 kts 225°
2026-05-06 15:42 44.69869 -5.78219 33033 ft 436 kts 225°
2026-05-06 15:43 44.65499 -5.84140 33030 ft 436 kts 224°
2026-05-06 15:43 44.60963 -5.89712 33028 ft 437 kts 221°
2026-05-06 15:44 44.56252 -5.95106 33030 ft 437 kts 220°
2026-05-06 15:44 44.51551 -6.00505 33029 ft 437 kts 221°
2026-05-06 15:45 44.46886 -6.05958 33028 ft 437 kts 221°
2026-05-06 15:45 44.42227 -6.11415 33018 ft 437 kts 221°
2026-05-06 15:46 44.37595 -6.16809 33020 ft 437 kts 221°
2026-05-06 15:46 44.32925 -6.22237 33023 ft 437 kts 221°
2026-05-06 15:47 44.28259 -6.27666 33023 ft 436 kts 221°
2026-05-06 15:47 44.23617 -6.33041 33017 ft 436 kts 221°
2026-05-06 15:48 44.18943 -6.38442 33014 ft 436 kts 221°
2026-05-06 15:48 44.14272 -6.43829 33020 ft 436 kts 221°
2026-05-06 15:49 44.09593 -6.49202 33027 ft 436 kts 221°
2026-05-06 15:49 44.04947 -6.54531 33032 ft 435 kts 221°
2026-05-06 15:50 44.00277 -6.59887 33025 ft 435 kts 221°
2026-05-06 15:50 43.95613 -6.65218 33022 ft 434 kts 221°
2026-05-06 15:51 43.90950 -6.70542 33026 ft 434 kts 221°
2026-05-06 15:51 43.86318 -6.75813 33017 ft 433 kts 221°
2026-05-06 15:52 43.81649 -6.81115 33105 ft 436 kts 221°
2026-05-06 15:52 43.79302 -6.83773 33362 ft 436 kts 220°
2026-05-06 15:52 43.76957 -6.86427 33663 ft 435 kts 220°
2026-05-06 15:53 43.74620 -6.89068 33961 ft 434 kts 220°
2026-05-06 15:53 43.72283 -6.91707 34202 ft 433 kts 220°
2026-05-06 15:53 43.69951 -6.94348 34409 ft 433 kts 220°
2026-05-06 15:53 43.67619 -6.96987 34603 ft 434 kts 220°
2026-05-06 15:54 43.65314 -6.99588 34794 ft 434 kts 220°
2026-05-06 15:54 43.62976 -7.02221 34975 ft 434 kts 220°
2026-05-06 15:54 43.58293 -7.07480 35032 ft 434 kts 220°
2026-05-06 15:55 43.53614 -7.12728 35032 ft 433 kts 220°
2026-05-06 15:55 43.48966 -7.17934 35029 ft 433 kts 220°
2026-05-06 15:56 43.44295 -7.23164 35031 ft 433 kts 220°
2026-05-06 15:56 43.39618 -7.28380 35019 ft 433 kts 220°
2026-05-06 15:57 43.34943 -7.33581 35027 ft 432 kts 220°
2026-05-06 15:57 43.30297 -7.38741 35031 ft 432 kts 220°
2026-05-06 15:58 43.25620 -7.43927 35025 ft 432 kts 220°
2026-05-06 15:58 43.20941 -7.49105 35029 ft 432 kts 220°
2026-05-06 15:59 43.16266 -7.54267 35020 ft 432 kts 220°
2026-05-06 15:59 43.11586 -7.59425 35025 ft 431 kts 220°
2026-05-06 16:00 43.06939 -7.64533 35031 ft 431 kts 219°
2026-05-06 16:00 43.02261 -7.69663 35033 ft 431 kts 219°
2026-05-06 16:01 42.97586 -7.74773 35023 ft 431 kts 219°
2026-05-06 16:01 42.92909 -7.79886 35018 ft 430 kts 219°
2026-05-06 16:02 42.88266 -7.84950 35008 ft 430 kts 219°
2026-05-06 16:02 42.83596 -7.90034 35016 ft 430 kts 219°
2026-05-06 16:03 42.78919 -7.95110 35006 ft 430 kts 219°
2026-05-06 16:03 42.74240 -8.00183 34998 ft 430 kts 219°
2026-05-06 16:04 42.69595 -8.05215 35009 ft 430 kts 220°
2026-05-06 16:04 42.64917 -8.10279 35013 ft 430 kts 219°
2026-05-06 16:05 42.60231 -8.15328 35014 ft 430 kts 219°
2026-05-06 16:05 42.55543 -8.20366 35020 ft 430 kts 219°
2026-05-06 16:06 42.50887 -8.25354 35015 ft 429 kts 219°
2026-05-06 16:06 42.46199 -8.30374 35009 ft 429 kts 219°
2026-05-06 16:07 42.41515 -8.35380 35017 ft 429 kts 219°
2026-05-06 16:07 42.36831 -8.40390 35008 ft 429 kts 219°
2026-05-06 16:08 42.32139 -8.45390 35006 ft 429 kts 219°
2026-05-06 16:08 42.27479 -8.50340 35001 ft 429 kts 219°
2026-05-06 16:09 42.22792 -8.55309 35004 ft 428 kts 219°
2026-05-06 16:09 42.18109 -8.60273 35004 ft 428 kts 219°
2026-05-06 16:10 42.13427 -8.65220 35004 ft 428 kts 219°
2026-05-06 16:10 42.08774 -8.70124 34999 ft 428 kts 219°
2026-05-06 16:11 42.04085 -8.75053 34994 ft 427 kts 219°
2026-05-06 16:11 41.99399 -8.79980 34990 ft 427 kts 219°
2026-05-06 16:12 41.94716 -8.84897 34987 ft 427 kts 219°
2026-05-06 16:12 41.90061 -8.89778 34986 ft 427 kts 219°
2026-05-06 16:13 41.85357 -8.94645 34985 ft 427 kts 218°
2026-05-06 16:13 41.80565 -8.99373 34977 ft 428 kts 217°
2026-05-06 16:14 41.75741 -9.04045 34977 ft 428 kts 217°
2026-05-06 16:14 41.70959 -9.08704 34979 ft 428 kts 218°
2026-05-06 16:15 41.66151 -9.13412 34984 ft 428 kts 218°
2026-05-06 16:15 41.61342 -9.18116 34976 ft 429 kts 218°
2026-05-06 16:16 41.56526 -9.22829 34980 ft 429 kts 218°
2026-05-06 16:16 41.51730 -9.27496 34989 ft 429 kts 218°
2026-05-06 16:17 41.46899 -9.32189 34990 ft 430 kts 218°
2026-05-06 16:17 41.42064 -9.36878 34993 ft 430 kts 218°
2026-05-06 16:18 41.37232 -9.41558 34990 ft 430 kts 218°
2026-05-06 16:18 41.32395 -9.46232 35007 ft 430 kts 218°
2026-05-06 16:19 41.27582 -9.50867 34999 ft 430 kts 218°
2026-05-06 16:19 41.22735 -9.55524 35010 ft 430 kts 218°
2026-05-06 16:20 41.18708 -9.59392 35010 ft 430 kts 218°
2026-05-06 16:20 41.13858 -9.64051 35001 ft 430 kts 218°
2026-05-06 16:21 41.08221 -9.69456 35010 ft 430 kts 218°
2026-05-06 16:21 41.03366 -9.74094 35011 ft 430 kts 218°
2026-05-06 16:22 40.99336 -9.77939 35016 ft 430 kts 218°
2026-05-06 16:22 40.94481 -9.82561 35011 ft 430 kts 218°
2026-05-06 16:23 40.89623 -9.87175 35002 ft 430 kts 218°
2026-05-06 16:23 40.83977 -9.92522 35015 ft 430 kts 218°
2026-05-06 16:24 40.79937 -9.96347 35013 ft 430 kts 218°
2026-05-06 16:24 40.75082 -10.00942 35025 ft 430 kts 218°
2026-05-06 16:25 40.70220 -10.05542 35022 ft 430 kts 218°
2026-05-06 16:25 40.65354 -10.10129 35018 ft 430 kts 218°
2026-05-06 16:26 40.60517 -10.14668 35025 ft 430 kts 218°
2026-05-06 16:26 40.55648 -10.19226 35025 ft 429 kts 218°
2026-05-06 16:27 40.50785 -10.23778 35017 ft 430 kts 218°
2026-05-06 16:27 40.45922 -10.28346 35016 ft 430 kts 218°
2026-05-06 16:28 40.41084 -10.32875 35007 ft 430 kts 218°
2026-05-06 16:28 40.36203 -10.37411 35018 ft 430 kts 218°
2026-05-06 16:29 40.31323 -10.41941 35024 ft 430 kts 218°
2026-05-06 16:29 40.26452 -10.46459 35028 ft 429 kts 218°
2026-05-06 16:30 40.22401 -10.50220 35029 ft 429 kts 218°
2026-05-06 16:30 40.16734 -10.55464 35028 ft 429 kts 218°
2026-05-06 16:31 40.11848 -10.59969 35023 ft 430 kts 218°
2026-05-06 16:31 40.06948 -10.64480 35018 ft 431 kts 218°
2026-05-06 16:32 40.02039 -10.68999 35020 ft 432 kts 218°
2026-05-06 16:32 39.97156 -10.73486 35005 ft 432 kts 218°
2026-05-06 16:33 39.92248 -10.77986 35017 ft 431 kts 218°
2026-05-06 16:34 39.84887 -10.84727 35024 ft 431 kts 218°
2026-05-06 16:34 39.80007 -10.89168 35035 ft 431 kts 218°
2026-05-06 16:35 39.75096 -10.93635 35034 ft 431 kts 218°
2026-05-06 16:35 39.70185 -10.98108 35008 ft 432 kts 218°
2026-05-06 16:36 39.65263 -11.02581 35014 ft 433 kts 218°
2026-05-06 16:36 39.60319 -11.07058 35016 ft 434 kts 218°
2026-05-06 16:37 39.55402 -11.11510 35024 ft 434 kts 218°
2026-05-06 16:37 39.50447 -11.15984 35028 ft 434 kts 218°
2026-05-06 16:38 39.45488 -11.20449 35033 ft 434 kts 218°
2026-05-06 16:38 39.40531 -11.24906 35037 ft 434 kts 218°
2026-05-06 16:39 39.35606 -11.29325 35039 ft 434 kts 218°
2026-05-06 16:39 39.30650 -11.33767 35029 ft 435 kts 219°
2026-05-06 16:40 39.25668 -11.38233 35021 ft 437 kts 219°
2026-05-06 16:40 39.20661 -11.42711 35013 ft 438 kts 219°
2026-05-06 16:41 39.15676 -11.47156 35032 ft 439 kts 219°
2026-05-06 16:41 39.10655 -11.51634 35037 ft 439 kts 219°
2026-05-06 16:42 39.05631 -11.56098 35043 ft 439 kts 219°
2026-05-06 16:42 39.00595 -11.60556 35047 ft 439 kts 219°
2026-05-06 16:43 38.95594 -11.64983 35037 ft 439 kts 219°
2026-05-06 16:43 38.90560 -11.69434 35048 ft 439 kts 219°
2026-05-06 16:44 38.85525 -11.73875 35052 ft 439 kts 219°
2026-05-06 16:44 38.80495 -11.78320 35059 ft 439 kts 219°
2026-05-06 16:45 38.75500 -11.82718 35060 ft 439 kts 219°
2026-05-06 16:45 38.70468 -11.87135 35053 ft 438 kts 219°
2026-05-06 16:46 38.65439 -11.91534 35059 ft 437 kts 219°
2026-05-06 16:46 38.60415 -11.95922 35060 ft 437 kts 218°
2026-05-06 16:47 38.55426 -12.00270 35058 ft 437 kts 218°
2026-05-06 16:47 38.50415 -12.04640 35057 ft 436 kts 219°
2026-05-06 16:48 38.45393 -12.09016 35029 ft 438 kts 219°
2026-05-06 16:48 38.40360 -12.13398 35033 ft 438 kts 219°
2026-05-06 16:49 38.35316 -12.17773 35035 ft 439 kts 219°
2026-05-06 16:49 38.30298 -12.22113 35042 ft 439 kts 219°
2026-05-06 16:50 38.25240 -12.26480 35048 ft 439 kts 219°
2026-05-06 16:50 38.20183 -12.30844 35035 ft 440 kts 219°
2026-05-06 16:51 38.15120 -12.35210 35055 ft 440 kts 219°
2026-05-06 16:51 38.10089 -12.39539 35055 ft 440 kts 219°
2026-05-06 16:52 38.05016 -12.43891 35044 ft 441 kts 219°
2026-05-06 16:52 37.99926 -12.48254 35044 ft 442 kts 219°
2026-05-06 16:53 37.94819 -12.52611 35026 ft 443 kts 219°
2026-05-06 16:53 37.89755 -12.56944 35039 ft 443 kts 219°
2026-05-06 16:54 37.84650 -12.61307 35055 ft 443 kts 219°
2026-05-06 16:54 37.79538 -12.65659 35057 ft 443 kts 219°
2026-05-06 16:55 37.74419 -12.69996 35056 ft 443 kts 219°
2026-05-06 16:55 37.69335 -12.74299 35058 ft 443 kts 219°
2026-05-06 16:56 37.64220 -12.78633 35044 ft 443 kts 219°
2026-05-06 16:56 37.59107 -12.82972 35041 ft 444 kts 219°
2026-05-06 16:57 37.53969 -12.87309 35046 ft 445 kts 219°
2026-05-06 16:57 37.48857 -12.91617 35047 ft 445 kts 219°
2026-05-06 16:58 37.43702 -12.95941 35036 ft 445 kts 219°
2026-05-06 16:58 37.38554 -13.00263 35043 ft 445 kts 219°
2026-05-06 16:59 37.33414 -13.04579 35049 ft 445 kts 219°
2026-05-06 16:59 37.28300 -13.08871 35056 ft 445 kts 219°
2026-05-06 17:00 37.23147 -13.13181 35061 ft 445 kts 219°
2026-05-06 17:00 37.17975 -13.17488 35042 ft 448 kts 219°
2026-05-06 17:01 37.12775 -13.21814 35052 ft 449 kts 219°
2026-05-06 17:01 37.07606 -13.26110 35056 ft 449 kts 219°
2026-05-06 17:02 37.02401 -13.30421 35060 ft 449 kts 219°
2026-05-06 17:02 36.97190 -13.34741 35064 ft 449 kts 219°
2026-05-06 17:03 36.91979 -13.39062 35058 ft 449 kts 219°
2026-05-06 17:03 36.86792 -13.43339 35063 ft 450 kts 219°
2026-05-06 17:04 36.81575 -13.47647 35067 ft 450 kts 219°
2026-05-06 17:04 36.76357 -13.51950 35044 ft 450 kts 219°
2026-05-06 17:05 36.71115 -13.56257 35063 ft 452 kts 219°
2026-05-06 17:05 36.65895 -13.60539 35045 ft 452 kts 219°
2026-05-06 17:06 36.60616 -13.64866 35055 ft 453 kts 219°
2026-05-06 17:06 36.55368 -13.69157 35049 ft 453 kts 219°
2026-05-06 17:07 36.50093 -13.73458 35052 ft 454 kts 219°
2026-05-06 17:07 36.44847 -13.77731 35059 ft 454 kts 219°
2026-05-06 17:08 36.39560 -13.82031 35048 ft 454 kts 219°
2026-05-06 17:08 36.34266 -13.86332 35034 ft 455 kts 219°
2026-05-06 17:09 36.28997 -13.90603 35040 ft 456 kts 219°
2026-05-06 17:09 36.23684 -13.94902 35051 ft 456 kts 219°
2026-05-06 17:10 36.18367 -13.99206 35054 ft 457 kts 219°
2026-05-06 17:10 36.13044 -14.03508 35042 ft 457 kts 219°
2026-05-06 17:11 36.07709 -14.07803 35059 ft 458 kts 219°
2026-05-06 17:11 36.02405 -14.12071 35065 ft 458 kts 219°
2026-05-06 17:12 35.97068 -14.16363 35071 ft 458 kts 219°
2026-05-06 17:12 35.91717 -14.20659 35079 ft 458 kts 219°
2026-05-06 17:13 35.86370 -14.24933 35035 ft 459 kts 219°
2026-05-06 17:13 35.81037 -14.29187 35046 ft 460 kts 219°
2026-05-06 17:14 35.75652 -14.33478 35053 ft 461 kts 219°
2026-05-06 17:14 35.70271 -14.37765 35060 ft 461 kts 219°
2026-05-06 17:15 35.64876 -14.42051 35065 ft 462 kts 219°
2026-05-06 17:15 35.59513 -14.46311 35049 ft 462 kts 219°
2026-05-06 17:16 35.54119 -14.50590 35065 ft 462 kts 219°
2026-05-06 17:16 35.48717 -14.54875 35076 ft 462 kts 219°
2026-05-06 17:17 35.43341 -14.59122 35049 ft 463 kts 219°
2026-05-06 17:17 35.37909 -14.63392 35053 ft 464 kts 219°
2026-05-06 17:18 35.32473 -14.67675 35040 ft 465 kts 219°
2026-05-06 17:18 35.27017 -14.71966 35053 ft 466 kts 219°
2026-05-06 17:19 35.21589 -14.76233 35066 ft 467 kts 219°
2026-05-06 17:19 35.16112 -14.80524 35078 ft 467 kts 219°
2026-05-06 17:20 35.10635 -14.84804 35086 ft 468 kts 219°
2026-05-06 17:20 35.05147 -14.89083 35083 ft 468 kts 219°
2026-05-06 17:21 34.99706 -14.93323 35093 ft 468 kts 219°
2026-05-06 17:21 34.94219 -14.97596 35063 ft 468 kts 219°
2026-05-06 17:22 34.88726 -15.01878 35065 ft 469 kts 219°
2026-05-06 17:22 34.83216 -15.06157 35070 ft 470 kts 219°
2026-05-06 17:23 34.77702 -15.10423 35061 ft 470 kts 219°
2026-05-06 17:23 34.72221 -15.14665 35081 ft 470 kts 219°
2026-05-06 17:24 34.66708 -15.18938 35082 ft 470 kts 219°
2026-05-06 17:24 34.61182 -15.23189 35090 ft 470 kts 219°
2026-05-06 17:25 34.55692 -15.27409 35089 ft 470 kts 219°
2026-05-06 17:25 34.50169 -15.31653 35079 ft 470 kts 219°
2026-05-06 17:26 34.44645 -15.35894 35085 ft 470 kts 219°
2026-05-06 17:26 34.39126 -15.40124 35088 ft 470 kts 219°
2026-05-06 17:27 34.33635 -15.44325 35089 ft 470 kts 219°
2026-05-06 17:27 34.28117 -15.48547 34925 ft 470 kts 219°
2026-05-06 17:27 34.25357 -15.50658 34337 ft 469 kts 218°
2026-05-06 17:28 34.22595 -15.52765 33656 ft 470 kts 218°
2026-05-06 17:28 34.19823 -15.54872 32869 ft 472 kts 218°
2026-05-06 17:28 34.17033 -15.56992 32034 ft 476 kts 218°
2026-05-06 17:28 34.14222 -15.59130 31174 ft 480 kts 218°
2026-05-06 17:29 34.11416 -15.61264 30314 ft 486 kts 218°
2026-05-06 17:29 34.08541 -15.63449 29330 ft 491 kts 218°
2026-05-06 17:29 34.05641 -15.65650 28399 ft 494 kts 218°
2026-05-06 17:29 34.02744 -15.67843 27778 ft 490 kts 217°
2026-05-06 17:30 33.99870 -15.70009 27038 ft 484 kts 217°
2026-05-06 17:30 33.97036 -15.72145 26279 ft 479 kts 217°
2026-05-06 17:30 33.94226 -15.74264 25554 ft 474 kts 217°
2026-05-06 17:30 33.91447 -15.76361 24839 ft 469 kts 217°
2026-05-06 17:31 33.88732 -15.78412 24166 ft 465 kts 216°
2026-05-06 17:31 33.86003 -15.80471 23454 ft 460 kts 216°
2026-05-06 17:31 33.83306 -15.82506 22711 ft 455 kts 216°
2026-05-06 17:31 33.80645 -15.84510 22020 ft 448 kts 216°
2026-05-06 17:32 33.78023 -15.86481 21335 ft 441 kts 216°
2026-05-06 17:32 33.75443 -15.88421 20677 ft 434 kts 216°
2026-05-06 17:32 33.72900 -15.90331 20033 ft 428 kts 216°
2026-05-06 17:32 33.70393 -15.92216 19556 ft 423 kts 216°
2026-05-06 17:33 33.67948 -15.94054 19083 ft 418 kts 216°
2026-05-06 17:33 33.65504 -15.95895 18634 ft 412 kts 216°
2026-05-06 17:33 33.63102 -15.97725 18164 ft 406 kts 217°
2026-05-06 17:33 33.60740 -15.99539 17706 ft 400 kts 217°
2026-05-06 17:34 33.58419 -16.01328 17268 ft 393 kts 217°
2026-05-06 17:34 33.56136 -16.03088 16838 ft 388 kts 217°
2026-05-06 17:34 33.53877 -16.04830 16393 ft 384 kts 217°
2026-05-06 17:34 33.51642 -16.06550 15946 ft 380 kts 217°
2026-05-06 17:35 33.49454 -16.08227 15503 ft 377 kts 216°
2026-05-06 17:35 33.47252 -16.09910 15061 ft 374 kts 216°
2026-05-06 17:35 33.45065 -16.11578 14592 ft 372 kts 216°
2026-05-06 17:36 33.40733 -16.14887 13649 ft 368 kts 216°
2026-05-06 17:36 33.38584 -16.16527 13172 ft 364 kts 216°
2026-05-06 17:36 33.36456 -16.18149 12704 ft 361 kts 216°
2026-05-06 17:36 33.34345 -16.19757 12228 ft 358 kts 216°
2026-05-06 17:37 33.32246 -16.21355 11754 ft 356 kts 216°
2026-05-06 17:37 33.30193 -16.22917 11285 ft 354 kts 215°
2026-05-06 17:37 33.28121 -16.24493 10897 ft 350 kts 215°
2026-05-06 17:37 33.26105 -16.26026 10765 ft 337 kts 215°
2026-05-06 17:38 33.24159 -16.27498 10650 ft 325 kts 215°
2026-05-06 17:38 33.22282 -16.28916 10530 ft 313 kts 215°
2026-05-06 17:38 33.20469 -16.30288 10349 ft 305 kts 215°
2026-05-06 17:38 33.18697 -16.31631 10178 ft 298 kts 216°
2026-05-06 17:39 33.16971 -16.32944 10117 ft 298 kts 215°
2026-05-06 17:39 33.15230 -16.34267 9788 ft 296 kts 216°
2026-05-06 17:39 33.13498 -16.35582 9329 ft 296 kts 215°
2026-05-06 17:39 33.11756 -16.36903 8874 ft 297 kts 215°
2026-05-06 17:40 33.10015 -16.38221 8459 ft 296 kts 215°
2026-05-06 17:40 33.08283 -16.39535 8091 ft 294 kts 215°
2026-05-06 17:40 33.06556 -16.40842 7694 ft 293 kts 214°
2026-05-06 17:40 33.04830 -16.42146 7283 ft 292 kts 215°
2026-05-06 17:41 33.03146 -16.43416 6865 ft 288 kts 214°
2026-05-06 17:41 33.01476 -16.44675 6423 ft 282 kts 215°
2026-05-06 17:41 32.99824 -16.45920 5860 ft 280 kts 214°
2026-05-06 17:41 32.98176 -16.47161 5344 ft 281 kts 214°
2026-05-06 17:42 32.96529 -16.48401 4974 ft 279 kts 214°
2026-05-06 17:42 32.94897 -16.49631 4626 ft 276 kts 214°
2026-05-06 17:42 32.93281 -16.50852 4251 ft 274 kts 216°
2026-05-06 17:42 32.91817 -16.52278 3868 ft 271 kts 225°
2026-05-06 17:43 32.90431 -16.53766 3482 ft 271 kts 224°
2026-05-06 17:43 32.89042 -16.55249 3226 ft 265 kts 224°
2026-05-06 17:43 32.87685 -16.56694 3043 ft 257 kts 224°
2026-05-06 17:43 32.86380 -16.58082 3015 ft 251 kts 224°
2026-05-06 17:44 32.85051 -16.59420 3010 ft 251 kts 217°
2026-05-06 17:44 32.83614 -16.60603 3012 ft 251 kts 217°
2026-05-06 17:44 32.82176 -16.61791 3013 ft 254 kts 217°
2026-05-06 17:44 32.80753 -16.62969 3025 ft 240 kts 217°
2026-05-06 17:45 32.79451 -16.64045 3012 ft 222 kts 218°
2026-05-06 17:45 32.78238 -16.65046 3024 ft 204 kts 218°
2026-05-06 17:45 32.77098 -16.65991 3008 ft 198 kts 218°
2026-05-06 17:45 32.75970 -16.66929 2755 ft 198 kts 218°
2026-05-06 17:46 32.74853 -16.67854 2468 ft 194 kts 218°
2026-05-06 17:46 32.73757 -16.68760 2211 ft 189 kts 218°
2026-05-06 17:46 32.72709 -16.69625 1986 ft 178 kts 217°
2026-05-06 17:46 32.71727 -16.70435 1734 ft 165 kts 215°
2026-05-06 17:47 32.70820 -16.71183 1525 ft 159 kts 216°
2026-05-06 17:47 32.69921 -16.71934 1313 ft 159 kts 215°
2026-05-06 17:47 32.69013 -16.72683 1112 ft 159 kts 215°
2026-05-06 17:47 32.68104 -16.73424 926 ft 158 kts 216°
2026-05-06 17:48 32.67188 -16.74163 919 ft 162 kts 217°
2026-05-06 17:48 32.66259 -16.74922 920 ft 163 kts 218°
2026-05-06 17:48 32.65335 -16.75690 906 ft 162 kts 217°
2026-05-06 17:48 32.64414 -16.76462 898 ft 163 kts 218°
2026-05-06 17:49 32.63663 -16.77402 894 ft 155 kts 245°
2026-05-06 17:49 32.63521 -16.78610 929 ft 147 kts 287°
2026-05-06 17:49 32.64013 -16.79606 908 ft 142 kts 321°
2026-05-06 17:49 32.64878 -16.80111 902 ft 138 kts 347°
2026-05-06 17:50 32.65839 -16.80198 820 ft 141 kts
2026-05-06 17:50 32.66817 -16.80110 682 ft 141 kts
2026-05-06 17:50 32.67735 -16.79732 528 ft 140 kts 28°
2026-05-06 17:50 32.68471 -16.78981 354 ft 139 kts 41°
2026-05-06 17:51 32.69145 -16.78192 170 ft 135 kts 41°
2026-05-06 17:51 32.69692 -16.77560 180 ft 70 kts 46°
2026-05-06 17:51 32.69932 -16.77281 193 ft 31 kts 45°
2026-05-06 17:51 32.69934 -16.77183 199 ft 12 kts 154°
2026-05-06 17:52 32.69850 -16.77182 183 ft 13 kts 193°
2026-05-06 17:52 32.69805 -16.77219 181 ft 8 kts 226°
2026-05-06 17:52 32.69757 -16.77278 176 ft 12 kts 226°
2026-05-06 17:52 32.69688 -16.77363 169 ft 11 kts 225°
2026-05-06 17:53 32.69640 -16.77422 169 ft 9 kts 226°
2026-05-06 17:53 32.69601 -16.77471 169 ft 8 kts 226°
2026-05-06 17:53 32.69567 -16.77512 169 ft 6 kts 226°
2026-05-06 17:53 32.69540 -16.77546 169 ft 5 kts 226°
2026-05-06 17:54 32.69517 -16.77574 169 ft 5 kts 226°
2026-05-06 17:54 32.69490 -16.77607 169 ft 6 kts 226°
2026-05-06 17:54 32.69460 -16.77645 169 ft 7 kts 226°
2026-05-06 17:54 32.69426 -16.77687 169 ft 7 kts 226°
2026-05-06 17:55 32.69393 -16.77697 169 ft 5 kts 155°
2026-05-06 17:55 32.69369 -16.77672 169 ft 3 kts 137°
2026-05-06 17:55 32.69359 -16.77662 169 ft 1 kts 138°